Погода в Нукусе

Погода в Нукусе : погода сейчас, прогноз погоды и архив. Всё, что Вы хотите узнать о погоде в Нукусе!

Поиск расширенной информации на нашем сайте:

Полезная информация: Дома и земельные участки: оформление прав на земельный участок.

Другие новости

Новости СМИ2

Главная страница сайта

Новости сайта

03.07.2017

Напоминаем, что на нашем специализированном сайте Метеоцентр.Азия вы можете получить высокодетализированные автоматические прогнозы погоды по пунктам России, СНГ и мира в авиационном формате (включающие направление и скорость ветра, видимость, явления погоды, количество и форму облачности, нижнюю и верхнюю границу облачности).

Рекомендуем: торчки: полный улёт смотреть онлайн

Погода в Нукусе - сегодня

Время (UTC), дата Ветер
(°,м/с) 
Видим.   Явления Облачность Т
(°С)
Тd
(°С)
f(%) Тe
(°С)
Pmin
(гПа)
dP
(гПа)
Po
(мм)
O2
(г/м3)
Тmin Tmax R s Состояние
почвы
09 13.01.18 040 (СВ) 20000 м    5/5 1500 м 
[Sc]
-0.6 -8 57 -4  1025.3  762  308           
12 13.01.18 020 (С) 20000 м    8/0 средняя 
[Ac trans]
-0.9 -7.8 59 -5  1026.4  1.1  763  309           
15 13.01.18 030 (СВ) 20000 м    9/0 средняя 
[Ac As]
-2 -7.4 66 -6  1027.9  1.5  764  311    -0.3       
18 13.01.18 010 (С) 20000 м    9/0 средняя 
[Ac As]
-3.5 -7.1 76 -6  1029.1  1.2  765  313    -0.3       
21 13.01.18 030 (СВ) 20000 м    9/9 1500 м 
[Sc]
-4.5 -7.6 79 -8  1029.1  765  314           
00 14.01.18 030 (СВ) 20000 м    9/9 1000 м 
[Sc]
-4.5 -8 76 -7  1029.1  765  314           
03 14.01.18 020 (С) 20000 м  слаб. снег{ливн. осадки}  10/10 1000 м 
[Ns]
-5.1 -7.2 85 -7  1030.3  765  315  -5.3       
06 14.01.18 030 (СВ) 20000 м  слаб. снег  10/10 1500 м 
[Ns]
-5.3 -7.4 85 -9  1031.3  766  316  -5.3    0.2     
09 14.01.18 020 (С) 20000 м  слаб. снег  10/10 1000 м 
[Ns]
-4.5 -8 76 -8  1030.3  -0.8  765  314           
12 14.01.18 020 (С) 20000 м  {снег}  10/4 1500 м средняя 
[Sc|Ac As]
-4.1 -7.9 75 -8  1030.4  0.1  766  314           
15 14.01.18 020 (С) 20000 м    9/3 600 м средняя 
[Sc|Ac As]
-4.8 -7.6 81 -9  1031.1  0.7  766  315    -3.7  0.5     
18 14.01.18 360 (С) 20000 м    5/0 средняя 
[Ac trans]
-7.4 -9.1 88 -11  1032.2  0.9  767  319    -3.7  0.5     
21 14.01.18 350 (С) 20000 м    5/0 верхняя 
[Ci ing]
-9.1 -11.1 85 -14  1032.1  -0.1  767  321           
00 15.01.18 010 (С) 20000 м    5/0 средняя 
[Ac trans]
-11.4 -13.4 85 -16  1032.4  0.1  767  324           
03 15.01.18 010 (С) 20000 м    3/0 средняя 
[Ac trans]
-12.9 -14.9 85 -16  1032.9  0.5  767  326        <0.5   
06 15.01.18 030 (СВ) 20000 м    4/0 верхняя 
[Ci ing]
-10.2 -14.6 70 -15  1033.7  0.8  768  323  -13.2         
09 15.01.18 020 (С) 20000 м    5/0 верхняя 
[Ci ing]
-5.6 -12.7 57 -11  1032.2  -1.3  767  317           
12 15.01.18 010 (С) 20000 м    6/0 верхняя 
[Ci ing]
-6 -13.4 56 -11  1032.3  0.1  767  317           
15 15.01.18 350 (С) 20000 м    ясно 
-9.9 -15.8 62 -15  1033.5  768  322    -4.9       
18 15.01.18 350 (С) 20000 м    ясно 
-12.3 -15.8 75 -17  1033.7  0.2  768  325    -4.9       
21 15.01.18 350 (С) 20000 м    ясно 
-13.7 -16.4 80 -18  1033.5  -0.2  768  327           
00 16.01.18 350 (С) 20000 м    ясно 
-15.1 -17.8 80 -19  1033.7  768  329           
03 16.01.18 330 (СЗ) 20000 м    ясно 
-15.8 -18.5 80 -20  1033.9  0.2  768  330  -16.1      <0.5   
06 16.01.18 360 (С) 20000 м    ясно 
-13 -17.3 70 -16  1034.6  0.8  768  327  -16.1         
09 16.01.18 010 (С) 20000 м    1/0 средняя 
[Ac trans]
-8.2 -16.3 52 -11  1032.6  -1.7  767  320           
Время (UTC), дата Ветер
(°,м/с) 
Видим.   Явления Облачность Т
(°С)
Тd
(°С)
f(%) Тe
(°С)
Pmin
(гПа)
dP
(гПа)
Po
(мм)
O2
(г/м3)
Тmin Tmax R s Состояние
почвы

Для получения пояснительной информации подведите курсор к названию столбца.

ПОГОДА в Нукусе - архив

Всё, что Вы хотите узнать о погоде в Нукусе - удобно и подробно!

Выберите нужную дату (начиная с 1 января 2015* года) и нажмите кнопку "Найти".
Будут отображены архивные сводки погоды по пункту Нукус, начиная с указанной даты.


Отображать данные в формате CSV (для использования в таблицах Excel)


Внимание! Наш архив погоды предназначен исключительно для личного некоммерческого использования в познавательных целях. Если Вам необходимы официальные справки о состоянии погоды (для производственных, юридических, коммерческих и т.п. целей), обращайтесь в органы Росгидромета.

*Примечание: данная дата относится к архиву по метеостанциям СССР (Россия, СНГ, Балтия).
Архив по метеостанциям Зарубежной Европы и Азии (кроме Китая) хранится 10 дней, по другим регионам земного шара (Китай, Африка, Америка, Австралия, Океания) - 1 день.

Нукус - район местоположения метеостанции


Название, широта, долгота, высота метеостанции:
Нукус 42.4°ш. 59.6°д. 77 м над ур. моря [Узбекистан]

Дополнительная информация

В oтличие oт бoльшинства пoгoдных сайтoв мы публикуем пoдрoбную метеoинфoрмацию в детальнoм прoфессиoнальнoм фoрмате.

Характеристики температуры и влажнoсти вoздуха измеряются на высoте 2 м в тени вдали oт зданий и деревьев.
Скoрoсть ветра измеряется на высoте 10 м (на урoвне рoста челoвека скoрoсть ветра ниже в 1.5-2 раза). Если метеoстанция нахoдится в гoрoде или в лесу, тo скoрoсть ветра занижена на 2-4 м/с пo сравнению с oткрытым местoм. Скoрoсть ветра над акватoриями крупных рек и oзёр, а также на вершинах хoлмoв на 2-5 м/с выше, чем в oбычных услoвиях.
Атмoсфернoе давление в разных тoчках местнoсти мoжет значительнo oтличаться oт давления на метеoстанции, в зависимoсти oт услoвий рельефа (при пoдъёме на 10 м давление пoнижается примернo на 1 мм рт.ст.).